weather.gov     
National Weather Service

Regional Weather Roundup
NWS Homepage
This page is being discontinued on March 12, 2014.
The same data is available at this site. Please update your bookmarks.
Thank you, and we apologize for the inconvenience.
Please send an email to SR-SRH.Webmaster@noaa.gov with any concerns.


Current Version
Previous Version:    01  02  03  04  05  06  07  08  09  10  11  12  13  14  15  16  17  18  19  20  21  22  23  24  25  26  27  28  29  30  
   31  32  33  34  35  36  37  38  39  40  41  42  43  44  45  46  47  48  49  50  51  52  53  54  55  56  57  58  59  60  
[Printable]
035
ASUS44 KFWD 010203
RWRTX
NORTH TEXAS HOURLY WEATHER ROUNDUP
NATIONAL WEATHER SERVICE FORT WORTH TX
900 PM CDT FRI OCT 31 2014

NOTE: "FAIR" INDICATES FEW OR NO CLOUDS BELOW 12,000 FEET WITH NO
SIGNIFICANT WEATHER AND/OR OBSTRUCTIONS TO VISIBILITY.

TXZ118-119-010300-
DALLAS/FORT WORTH METROPLEX

CITY           SKY/WX    TMP DP  RH WIND       PRES   REMARKS
DFW AIRPORT    CLEAR     55  37  50 NE9       30.34R
DALLAS LOVE    CLEAR     58  37  45 N8        30.34R
FTW MEACHAM    CLEAR     55  38  52 N8        30.34R
DAL-EXECUTIVE  CLEAR     56  38  50 N6        30.33R
FTW-ALLIANCE   CLEAR     51  37  58 N7        30.34S
FTW-NAS-JRB    CLEAR     59  37  44 N8        30.39R
FTW-SPINKS     CLEAR     53  38  56 N3        30.35S
ARLINGTON      CLEAR     53  38  56 N7        30.34R
GRAND PRAIRIE  CLEAR     55  39  54 N6        30.35S
ADDISON        CLEAR     55  36  47 N7        30.35R
LANCASTER      CLEAR     53  33  46 N3        30.35R
$$

TXZ091>094-102>105-117-120-121-131>134-010300-
NORTH CENTRAL TEXAS

CITY           SKY/WX    TMP DP  RH WIND       PRES   REMARKS
SHRMAN/DENISON CLEAR     50  36  58 NE8       30.38R
GAINESVILLE    CLEAR     50  33  51 N7        30.38S
BRIDGEPORT     CLEAR     44  38  79 CALM      30.38S
DECATUR        CLEAR     52  36  55 N5        30.36R
DENTON         CLEAR     50  37  61 N3        30.35R
MCKINNEY       CLEAR     52  37  56 N5        30.35R
GREENVILLE     CLEAR     50  34  53 N6        30.35R
ROCKWALL       CLEAR     52  39  60 NE6       30.33R
TERRELL        CLEAR     52  37  56 CALM      30.34R
WAXAHACHIE     CLEAR     52  39  60 N3        30.35S
CLEBURNE       CLEAR     50  39  66 N6        30.36R
GRANBURY       CLEAR     55  42  63 CALM      30.36R
$$

TXZ083>090-098>101-113>116-127>130-139>142-154-155-010300-
WESTERN NORTH TEXAS

CITY           SKY/WX    TMP DP  RH WIND       PRES   REMARKS
WICHITA FALLS  CLEAR     48  31  51 N10       30.37R
WF-KICKAPOO    CLEAR     51  31  45 N9        30.39R
VERNON         PTCLDY    48  28  46 NE3       30.40R
ABILENE        CLEAR     55  33  43 NE7       30.35S
ABILENE-DYESS  CLEAR     52  32  47 NE7       30.35R
BRECKENRIDGE   CLEAR     55  35  47 NE6       30.36S
GRAHAM         CLEAR     51  38  60 CALM      30.36R
MINERAL WELLS  CLEAR     53  38  56 N3        30.35R
STEPHENVILLE   CLEAR     54  38  56 NE6       30.37R
COMANCHE       CLEAR     53  40  63 N5        30.34S
COLEMAN        CLEAR     53  37  53 N7        30.34S
BRADY          CLEAR     55  32  41 NE8       30.32R
$$

TXZ143>147-156>162-174-175-010300-
CENTRAL TEXAS

CITY           SKY/WX    TMP DP  RH WIND       PRES   REMARKS
WACO           CLEAR     53  40  61 N8        30.32R
WACO-TSTC      CLEAR     55  39  54 N7        30.32R
WACO-MCGREGOR  CLEAR     55  36  47 N9        30.33R
HILLSBORO      CLEAR     54  37  52 N7        30.33S
CORSICANA      CLEAR     55  39  54 N6        30.33R
MEXIA          CLEAR     55  40  58 N6        30.30R
HEARNE         CLEAR     58  42  54 N7        30.30R
CAMERON        CLEAR     56  42  60 N6        30.30R
TEMPLE         CLEAR     55  36  47 N7        30.30R
KILLEEN        CLEAR     55  40  56 N10       30.31R
KILLEEN-SKYLRK CLEAR     59  36  41 N12       30.29R
GATESVILLE     CLEAR     57  39  51 CALM      30.34R
HAMILTON       CLEAR     55  39  53 NE3       30.34R
LAMPASAS       CLEAR     55  43  63 N3        30.31R
$$

TXZ095>097-106>112-122>126-135>138-148>153-164>167-010300-
EAST TEXAS

CITY           SKY/WX    TMP DP  RH WIND       PRES   REMARKS
PARIS          CLEAR     46  32  57 N5        30.36R
SULPHUR SPRNGS CLEAR     53  40  61 N9        30.36R
MOUNT PLEASANT CLEAR     53  38  58 N9        30.34R
MINEOLA        CLEAR     52  39  62 CALM      30.33F
TYLER          CLEAR     55  39  54 N10       30.31R
LONGVIEW       CLEAR     55  41  59 N8        30.30R
MARSHALL       CLEAR     58  46  65 N8        30.32R
ATHENS         CLEAR     54  37  54 N7        30.31S
PALESTINE      CLEAR     56  44  64 N10       30.31S
JACKSONVILLE   CLEAR     55  44  65 N6        30.31R
HENDERSON      CLEAR     55  43  64 NW3       30.31R
NACOGDOCHES    CLEAR     54  43  66 N6        30.28S
LUFKIN         CLEAR     60  44  55 N5        30.27R
$$

SUPPLEMENTAL OBSERVATIONS (CENTRAL)

CITY           SKY/WX    TMP DP  RH WIND       PRES   REMARKS
$$

SUPPLEMENTAL OBSERVATIONS (WEST)

CITY           SKY/WX    TMP DP  RH WIND       PRES   REMARKS
$$

SUPPLEMENTAL OBSERVATIONS (EAST)

CITY           SKY/WX    TMP DP  RH WIND       PRES   REMARKS
$$

SUPPLEMENTAL OBSERVATIONS ARE A COLLECTION OF AUTOMATED INSTRUMENTS
THAT ARE MAINTAINED BY A VARIETY OF FEDERAL AND STATE AGENCIES.
CERTAIN ELEMENTS...SUCH AS HUMIDITY VALUES AND SUSTAINED WIND
SPEEDS...MAY BE APPROXIMATED.





U.S. Dept. of Commerce
NOAA National Weather Service
1325 East West Highway
Silver Spring, MD 20910
E-mail: w-nws.webmaster@noaa.gov
Page last modified: May 16, 2007
NATIONAL WEATHER SERVICE: for Safety, for Work, for Fun - FOR LIFE